Time,TemperatureF,DewpointF,PressureIn,WindDirection,WindDirectionDegrees,WindSpeedMPH,WindSpeedGustMPH,Humidity,HourlyPrecipIn,Conditions,Clouds,dailyrainin,SoftwareType,DateUTC
2013-05-05 00:02:00,60.0,43.0,29.99,NE,52,0.0,7.0,53,0.00,,,0.00,,2013-05-05 04:02:00,
2013-05-05 00:12:00,60.0,43.0,29.99,NE,52,0.0,7.0,53,0.00,,,0.00,,2013-05-05 04:12:00,
2013-05-05 00:22:00,60.0,43.0,29.99,NE,52,0.0,7.0,53,0.00,,,0.00,,2013-05-05 04:22:00,
2013-05-05 00:32:00,60.0,43.0,29.99,NE,52,0.0,7.0,53,0.00,,,0.00,,2013-05-05 04:32:00,
2013-05-05 08:52:00,58.0,44.0,29.99,East,100,1.0,6.0,60,0.00,,,0.00,,2013-05-05 12:52:00,
2013-05-05 09:01:00,58.0,44.0,29.99,SSE,168,2.0,8.0,60,0.00,,,0.00,,2013-05-05 13:01:00,
2013-05-05 09:11:00,58.0,44.0,29.99,SSE,168,2.0,8.0,60,0.00,,,0.00,,2013-05-05 13:11:00,
2013-05-05 09:21:00,59.0,44.0,29.98,East,83,1.0,8.0,57,0.00,,,0.00,,2013-05-05 13:21:00,
2013-05-05 09:32:00,60.0,44.0,29.99,ESE,107,0.0,6.0,56,0.00,,,0.00,,2013-05-05 13:32:00,
2013-05-05 09:42:00,60.0,44.0,29.99,ESE,107,0.0,6.0,56,0.00,,,0.00,,2013-05-05 13:42:00,
2013-05-05 09:52:00,61.0,45.0,29.99,ENE,64,2.0,7.0,56,0.00,,,0.00,,2013-05-05 13:52:00,
2013-05-05 10:01:00,62.0,47.0,29.99,NE,52,0.0,6.0,59,0.00,,,0.00,,2013-05-05 14:01:00,
2013-05-05 10:11:00,63.0,46.0,29.98,SSW,193,3.0,7.0,53,0.00,,,0.00,,2013-05-05 14:11:00,
2013-05-05 10:21:00,63.0,46.0,29.98,SSW,193,3.0,7.0,53,0.00,,,0.00,,2013-05-05 14:21:00,
2013-05-05 10:31:00,63.0,47.0,29.98,South,184,0.0,8.0,55,0.00,,,0.00,,2013-05-05 14:31:00,
2013-05-05 10:42:00,63.0,47.0,29.98,South,184,0.0,8.0,55,0.00,,,0.00,,2013-05-05 14:42:00,
2013-05-05 10:52:00,65.0,48.0,29.98,South,181,0.0,6.0,54,0.00,,,0.00,,2013-05-05 14:52:00,
2013-05-05 11:01:00,66.0,47.0,29.98,East,85,1.0,6.0,50,0.00,,,0.00,,2013-05-05 15:01:00,
2013-05-05 11:11:00,66.0,47.0,29.98,East,85,1.0,6.0,50,0.00,,,0.00,,2013-05-05 15:11:00,
2013-05-05 11:21:00,67.0,47.0,29.99,ENE,66,1.0,6.0,49,0.00,,,0.00,,2013-05-05 15:21:00,
2013-05-05 11:33:00,68.0,48.0,29.99,NE,47,0.0,6.0,48,0.00,,,0.00,,2013-05-05 15:33:00,
2013-05-05 11:43:00,68.0,48.0,29.99,NE,47,0.0,6.0,48,0.00,,,0.00,,2013-05-05 15:43:00,
2013-05-05 11:53:00,69.0,48.0,29.99,NE,51,0.0,7.0,47,0.00,,,0.00,,2013-05-05 15:53:00,
2013-05-05 12:03:00,69.0,48.0,29.99,South,182,1.0,9.0,47,0.00,,,0.00,,2013-05-05 16:03:00,
2013-05-05 12:12:00,69.0,48.0,29.99,South,182,1.0,9.0,47,0.00,,,0.00,,2013-05-05 16:12:00,
2013-05-05 12:22:00,70.0,46.0,29.99,East,79,2.0,8.0,43,0.00,,,0.00,,2013-05-05 16:22:00,
2013-05-05 12:32:00,69.0,46.0,29.98,South,189,2.0,9.0,44,0.00,,,0.00,,2013-05-05 16:32:00,
2013-05-05 12:42:00,69.0,46.0,29.98,South,189,2.0,9.0,44,0.00,,,0.00,,2013-05-05 16:42:00,
2013-05-05 12:53:00,70.0,45.0,29.98,NNE,21,3.0,9.0,41,0.00,,,0.00,,2013-05-05 16:53:00,
2013-05-05 13:02:00,71.0,47.0,29.97,ENE,58,2.0,9.0,42,0.00,,,0.00,,2013-05-05 17:02:00,
2013-05-05 13:12:00,71.0,47.0,29.97,ENE,58,2.0,9.0,42,0.00,,,0.00,,2013-05-05 17:12:00,
2013-05-05 13:23:00,71.0,45.0,29.97,ESE,109,6.0,11.0,40,0.00,,,0.00,,2013-05-05 17:23:00,
2013-05-05 13:32:00,70.0,44.0,29.96,SE,128,3.0,10.0,39,0.00,,,0.00,,2013-05-05 17:32:00,
2013-05-05 13:42:00,70.0,44.0,29.96,SE,128,3.0,10.0,39,0.00,,,0.00,,2013-05-05 17:42:00,
2013-05-05 13:52:00,71.0,45.0,29.96,SE,127,2.0,14.0,40,0.00,,,0.00,,2013-05-05 17:52:00,
2013-05-05 14:01:00,71.0,43.0,29.96,ESE,109,4.0,13.0,37,0.00,,,0.00,,2013-05-05 18:01:00,
2013-05-05 14:12:00,71.0,43.0,29.96,ESE,109,4.0,13.0,37,0.00,,,0.00,,2013-05-05 18:12:00,
2013-05-05 14:21:00,71.0,45.0,29.96,ESE,104,2.0,11.0,39,0.00,,,0.00,,2013-05-05 18:21:00,
2013-05-05 14:32:00,72.0,46.0,29.96,East,100,4.0,13.0,40,0.00,,,0.00,,2013-05-05 18:32:00,
2013-05-05 14:42:00,72.0,46.0,29.96,East,100,4.0,13.0,40,0.00,,,0.00,,2013-05-05 18:42:00,
2013-05-05 14:52:00,72.0,45.0,29.95,NE,49,6.0,16.0,38,0.00,,,0.00,,2013-05-05 18:52:00,
2013-05-05 15:01:00,73.0,44.0,29.95,ESE,117,5.0,9.0,35,0.00,,,0.00,,2013-05-05 19:01:00,
2013-05-05 15:11:00,73.0,44.0,29.95,ESE,117,5.0,9.0,35,0.00,,,0.00,,2013-05-05 19:11:00,
2013-05-05 15:21:00,71.0,45.0,29.95,SSE,151,1.0,9.0,39,0.00,,,0.00,,2013-05-05 19:21:00,
2013-05-05 15:32:00,72.0,46.0,29.96,South,178,4.0,11.0,39,0.00,,,0.00,,2013-05-05 19:32:00,
2013-05-05 15:42:00,72.0,46.0,29.96,South,178,4.0,11.0,39,0.00,,,0.00,,2013-05-05 19:42:00,
2013-05-05 15:52:00,72.0,46.0,29.95,SSE,160,3.0,9.0,39,0.00,,,0.00,,2013-05-05 19:52:00,
2013-05-05 16:01:00,73.0,45.0,29.94,NE,45,2.0,9.0,37,0.00,,,0.00,,2013-05-05 20:01:00,
2013-05-05 16:11:00,73.0,45.0,29.94,NE,45,2.0,9.0,37,0.00,,,0.00,,2013-05-05 20:11:00,
2013-05-05 16:21:00,73.0,41.0,29.94,NNE,27,2.0,9.0,32,0.00,,,0.00,,2013-05-05 20:21:00,
2013-05-05 16:31:00,72.0,42.0,29.94,ENE,71,4.0,10.0,34,0.00,,,0.00,,2013-05-05 20:31:00,
2013-05-05 16:41:00,72.0,42.0,29.94,ENE,71,4.0,10.0,34,0.00,,,0.00,,2013-05-05 20:41:00,
2013-05-05 16:52:00,71.0,43.0,29.94,SW,215,4.0,8.0,37,0.00,,,0.00,,2013-05-05 20:52:00,
2013-05-05 17:01:00,70.0,43.0,29.94,SSW,192,3.0,11.0,38,0.00,,,0.00,,2013-05-05 21:01:00,
2013-05-05 17:11:00,70.0,43.0,29.94,SSW,192,3.0,11.0,38,0.00,,,0.00,,2013-05-05 21:11:00,
2013-05-05 17:21:00,70.0,43.0,29.94,SSW,209,5.0,8.0,38,0.00,,,0.00,,2013-05-05 21:21:00,
2013-05-05 17:33:00,70.0,43.0,29.94,East,97,1.0,8.0,38,0.00,,,0.00,,2013-05-05 21:33:00,
2013-05-05 17:42:00,70.0,43.0,29.94,East,97,1.0,8.0,38,0.00,,,0.00,,2013-05-05 21:42:00,
2013-05-05 17:53:00,70.0,43.0,29.94,ESE,113,4.0,8.0,38,0.00,,,0.00,,2013-05-05 21:53:00,
2013-05-05 18:02:00,70.0,44.0,29.94,South,186,2.0,6.0,39,0.00,,,0.00,,2013-05-05 22:02:00,
2013-05-05 18:12:00,70.0,44.0,29.94,South,186,2.0,6.0,39,0.00,,,0.00,,2013-05-05 22:12:00,
2013-05-05 18:22:00,70.0,46.0,29.94,SSE,167,4.0,7.0,42,0.00,,,0.00,,2013-05-05 22:22:00,
2013-05-05 18:33:00,69.0,44.0,29.94,SSE,161,0.0,6.0,41,0.00,,,0.00,,2013-05-05 22:33:00,
2013-05-05 18:42:00,69.0,44.0,29.94,SSE,161,0.0,6.0,41,0.00,,,0.00,,2013-05-05 22:42:00,
2013-05-05 18:52:00,69.0,44.0,29.94,SSE,168,1.0,9.0,40,0.00,,,0.00,,2013-05-05 22:52:00,
2013-05-05 19:32:00,68.0,-99.9,29.95,SSW,208,0.0,0.0,-999,0.00,,,0.00,,2013-05-05 23:32:00,
2013-05-05 19:42:00,68.0,-99.9,29.95,SSW,208,0.0,0.0,-999,0.00,,,0.00,,2013-05-05 23:42:00,
2013-05-05 19:52:00,68.0,-99.9,29.95,SSW,208,0.0,0.0,-999,0.00,,,0.00,,2013-05-05 23:52:00,
2013-05-05 20:31:00,67.0,46.0,29.95,South,182,0.0,1.0,47,0.00,,,0.00,,2013-05-06 00:31:00,
2013-05-05 20:41:00,67.0,46.0,29.95,South,182,0.0,1.0,47,0.00,,,0.00,,2013-05-06 00:41:00,
2013-05-05 20:52:00,66.0,46.0,29.95,South,182,0.0,0.0,49,0.00,,,0.00,,2013-05-06 00:52:00,
2013-05-05 21:01:00,65.0,47.0,29.95,South,182,0.0,0.0,53,0.00,,,0.00,,2013-05-06 01:01:00,
2013-05-05 21:11:00,65.0,47.0,29.95,South,182,0.0,0.0,53,0.00,,,0.00,,2013-05-06 01:11:00,
2013-05-05 21:21:00,63.0,47.0,29.96,South,182,0.0,0.0,56,0.00,,,0.00,,2013-05-06 01:21:00,
2013-05-05 21:31:00,63.0,48.0,29.96,South,182,0.0,0.0,57,0.00,,,0.00,,2013-05-06 01:31:00,
2013-05-05 21:41:00,63.0,48.0,29.96,South,182,0.0,0.0,57,0.00,,,0.00,,2013-05-06 01:41:00,
2013-05-05 21:52:00,63.0,48.0,29.96,South,182,0.0,0.0,57,0.00,,,0.00,,2013-05-06 01:52:00,
2013-05-05 22:01:00,63.0,48.0,29.96,South,182,0.0,0.0,57,0.00,,,0.00,,2013-05-06 02:01:00,